Regional Weather Roundup
Issued by NWS Sioux Falls, SD

Home | Current Version | Previous Version | Text Only | Print | Product List | Glossary On
Versions: 1 2 3 4 5 6 7 8 9 10 11 12 13 14 15 16 17 18 19 20 21 22 23 24 25 26 27 28 29 30 31 32 33 34 35 36 37 38 39 40 41 42 43 44 45 46 47 48 49 50
000
ASUS43 KFSD 301810
RWRFSD

WEATHER ROUNDUP FOR SE SOUTH DAKOTA/SW MINNESOTA/NW IOWA
NATIONAL WEATHER SERVICE SIOUX FALLS SD
100 PM CDT SAT MAY 30 2015

NOTE: "FAIR" INDICATES FEW OR NO CLOUDS BELOW 12,000 FEET WITH NO
SIGNIFICANT WEATHER AND OR OBSTRUCTIONS TO VISIBILITY.


SDZ038>040-050-052>070-301900-
SOUTHEAST SOUTH DAKOTA

CITY           SKY/WX    TMP DP  RH WIND       PRES   REMARKS
BROOKINGS      MOSUNNY   50  37  62 N16       30.30F
CHAMBERLAIN    SUNNY     53  36  51 N5        30.32F
6HR MIN TEMP:  40; 6HR MAX TEMP:  53;

HURON          SUNNY     57  38  48 N12G18    30.32F
6HR MIN TEMP:  39; 6HR MAX TEMP:  57;

MADISON        FAIR      52  41  66 NE13      30.30S
MITCHELL       SUNNY     58  39  49 NE12G17   30.31F
6HR MIN TEMP:  41; 6HR MAX TEMP:  58;

SIOUX FALLS    MOSUNNY   56  43  61 NE12      30.27F
6HR MIN TEMP:  42; 6HR MAX TEMP:  57;

WINNER         FAIR      57  33  40 NE12      30.32F
YANKTON        SUNNY     57  41  54 N12       30.27F
$$

MNZ071-072-080-081-089-090-097-098-301900-
SOUTHWEST MINNESOTA

CITY           SKY/WX    TMP DP  RH WIND       PRES   REMARKS
FAIRMONT       PTSUNNY   55  41  58 N17G24    30.23S
JACKSON        PTSUNNY   54  43  66 N14G22    30.25S
LUVERNE        MOSUNNY   55  41  58 NE10G20   30.27F
MARSHALL       MOSUNNY   54  39  58 N16       30.28S
6HR MIN TEMP:  43; 6HR MAX TEMP:  54;

MONTEVIDEO     MOSUNNY   55  43  62 NE14G23   30.30F
PIPESTONE      MOSUNNY   54  41  62 N9G17     30.27F
REDWOOD FALLS  SUNNY     57  40  52 N12G20    30.27F
TRACY          MOSUNNY   55  42  61 N16G23    30.28S
WINDOM         MOSUNNY   55  45  67 N16       30.25S
WORTHINGTON    MOSUNNY   54  41  62 N16G25    30.26S
$$

IAZ001>003-012>014-020>022-031-032-NEZ013-014-SDZ071-301900-
NORTHWEST IOWA

CITY           SKY/WX    TMP DP  RH WIND       PRES   REMARKS
CHEROKEE       SUNNY     58  44  58 N14G21    30.22F
DENISON        MOSUNNY   59  50  72 NE16G22   30.18S
ESTHERVILLE    PTSUNNY   56  45  66 N17G24    30.23S
LE MARS        SUNNY     59  45  58 N15G22    30.25F
ORANGE CITY    SUNNY     55  43  62 N13G21    30.24F
SHELDON        PTSUNNY   57 N/A N/A N18       30.24S
SIOUX CITY     SUNNY     62  41  46 N15G25    30.23F
6HR MIN TEMP:  50; 6HR MAX TEMP:  62;

SPENCER        MOSUNNY   59  43  55 N14G23    30.23S
6HR MIN TEMP:  49; 6HR MAX TEMP:  59;

STORM LAKE     SUNNY     59  43  55 N15G26    30.21S
$$

ABBREVIATIONS USED IN REMARKS
   TC - TEMPERATURE IN CELSIUS
  WCI - WIND CHILL INDEX
   HX - HEAT INDEX
  VSB - VISIBILITY




USA.gov is the U.S. government's official web portal to all federal, state and local government web resources and services.